Date String (YYYY-MM-DD hh:mm:ss) UTC,Instrument flags,Ambient pressure (hPa),Sample flow (lpm),Bypass flow (lpm),Sample temperature (°C),Ambient temperature (°C),ASC tube jacket temperature (°C),LED temperature (°C),Box temperature (°C),Sample RH (%),Span deviation,Mass concentration (μg/m³),Mass concentration (μg/m³),Mass concentration (μg/m³)
DateTimeUTC,F1_M11,P_M11,Q1_M11,Q2_M11,T1_M11,T2_M11,T3_M11,T4_M11,T5_M11,U1_M11,ZSPAN_M11,X0_M11,X2_M11,X1_M11
2022-06-11 20:00:00,,0822.5,5.00,0.00,28.6,26.9,00.0,37.4,30.5,15.9,0000.0,0013.06,0004.80,0003.22
2022-06-11 20:01:00,,0822.5,5.00,0.00,28.6,27.1,00.0,37.4,30.5,15.6,0000.0,0013.19,0004.85,0003.23
2022-06-11 20:02:00,,0822.5,5.00,0.00,28.6,27.3,00.0,37.4,30.5,14.4,0000.0,0013.34,0004.85,0003.24
2022-06-11 20:03:00,,0822.5,4.99,0.00,28.6,27.5,00.0,37.4,30.6,15.3,0000.0,0013.87,0004.81,0003.24
2022-06-11 20:04:00,,0822.4,5.00,0.00,28.7,27.7,00.0,37.4,30.7,14.5,0000.0,0013.81,0004.80,0003.24
2022-06-11 20:05:00,,0822.4,5.00,0.00,28.7,27.6,00.0,37.4,30.7,15.5,0000.0,0013.24,0004.81,0003.25
2022-06-11 20:06:00,,0822.4,4.99,0.00,28.7,27.1,00.0,37.4,30.5,16.0,0000.0,0014.13,0004.79,0003.23
2022-06-11 20:07:00,,0822.4,5.00,0.00,28.6,26.9,00.0,37.3,30.5,16.8,0000.0,0014.36,0004.77,0003.23
2022-06-11 20:08:00,,0822.3,5.01,0.00,28.6,26.9,00.0,37.3,30.5,16.2,0000.0,0014.13,0004.73,0003.22
2022-06-11 20:09:00,,0822.4,4.99,0.00,28.6,27.0,00.0,37.4,30.5,14.5,0000.0,0013.73,0004.69,0003.21
2022-06-11 20:10:00,,0822.4,5.00,0.00,28.6,27.2,00.0,37.4,30.5,14.5,0000.0,0013.55,0004.61,0003.20
2022-06-11 20:11:00,,0822.3,5.00,0.00,28.6,27.4,00.0,37.4,30.6,14.4,0000.0,0013.88,0004.61,0003.21
2022-06-11 20:12:00,,0822.4,5.00,0.00,28.7,27.6,00.0,37.4,30.7,14.5,0000.0,0014.10,0004.61,0003.20
2022-06-11 20:13:00,,0822.4,4.99,0.00,28.7,27.8,00.0,37.5,30.7,14.4,0000.0,0013.83,0004.56,0003.19
2022-06-11 20:14:00,,0822.4,5.00,0.00,28.8,27.7,00.0,37.4,30.8,13.8,0000.0,0013.19,0004.61,0003.19
2022-06-11 20:15:00,,0822.4,5.00,0.00,28.7,27.2,00.0,37.4,30.6,14.8,0000.0,0013.00,0004.68,0003.20
2022-06-11 20:16:00,,0822.4,5.00,0.00,28.7,26.9,00.0,37.3,30.5,15.2,0000.0,0012.88,0004.71,0003.20
2022-06-11 20:17:00,,0822.3,5.00,0.00,28.7,26.9,00.0,37.4,30.5,14.7,0000.0,0011.84,0004.70,0003.22
2022-06-11 20:18:00,,0822.3,4.99,0.00,28.6,27.0,00.0,37.4,30.5,15.8,0000.0,0011.10,0004.69,0003.22
2022-06-11 20:19:00,,0822.3,5.00,0.00,28.6,27.2,00.0,37.4,30.5,14.9,0000.0,0011.63,0004.70,0003.22
2022-06-11 20:20:00,,0822.4,5.00,0.00,28.7,27.4,00.0,37.4,30.6,14.4,0000.0,0012.95,0004.70,0003.23
2022-06-11 20:21:00,,0822.3,5.00,0.00,28.7,27.6,00.0,37.4,30.7,15.2,0000.0,0013.39,0004.70,0003.23
2022-06-11 20:22:00,,0822.3,5.00,0.00,28.7,27.7,00.0,37.5,30.8,14.0,0000.0,0013.03,0004.74,0003.23
2022-06-11 20:23:00,,0822.3,5.00,0.00,28.8,27.4,00.0,37.4,30.7,14.1,0000.0,0012.67,0004.70,0003.23
2022-06-11 20:24:00,,0822.3,5.00,0.00,28.7,26.8,00.0,37.4,30.5,15.6,0000.0,0012.75,0004.72,0003.23
2022-06-11 20:25:00,,0822.2,5.00,0.00,28.6,26.8,00.0,37.4,30.5,15.4,0000.0,0012.48,0004.67,0003.22
2022-06-11 20:26:00,,0822.2,5.00,0.00,28.6,26.9,00.0,37.4,30.5,15.5,0000.0,0012.38,0004.65,0003.23
2022-06-11 20:27:00,,0822.2,5.00,0.00,28.6,27.0,00.0,37.4,30.5,14.9,0000.0,0012.68,0004.60,0003.24
2022-06-11 20:28:00,,0822.2,5.01,0.00,28.6,27.2,00.0,37.4,30.6,15.1,0000.0,0013.02,0004.64,0003.25
2022-06-11 20:29:00,,0822.1,5.00,0.00,28.7,27.4,00.0,37.4,30.6,14.8,0000.0,0013.14,0004.65,0003.26
2022-06-11 20:30:00,,0822.2,5.00,0.00,28.7,27.6,00.0,37.5,30.7,14.9,0000.0,0012.63,0004.65,0003.26
2022-06-11 20:31:00,,0822.2,5.00,0.00,28.8,27.8,00.0,37.5,30.8,15.3,0000.0,0011.15,0004.65,0003.27
2022-06-11 20:32:00,,0822.1,5.01,0.00,28.8,27.4,00.0,37.4,30.7,14.5,0000.0,0010.45,0004.65,0003.28
2022-06-11 20:33:00,,0822.2,5.00,0.00,28.7,26.9,00.0,37.4,30.6,16.2,0000.0,0010.43,0004.61,0003.28
2022-06-11 20:34:00,,0822.2,5.00,0.00,28.7,26.8,00.0,37.4,30.5,15.9,0000.0,0010.63,0004.66,0003.29
2022-06-11 20:35:00,,0822.2,4.99,0.00,28.6,26.9,00.0,37.4,30.5,16.2,0000.0,0010.58,0004.64,0003.30
2022-06-11 20:36:00,,0822.1,4.99,0.00,28.6,27.1,00.0,37.4,30.5,16.0,0000.0,0010.59,0004.62,0003.30
2022-06-11 20:37:00,,0822.1,5.00,0.00,28.6,27.2,00.0,37.4,30.6,15.8,0000.0,0010.71,0004.59,0003.29
2022-06-11 20:38:00,,0822.1,5.01,0.00,28.7,27.4,00.0,37.4,30.6,16.3,0000.0,0010.95,0004.62,0003.29
2022-06-11 20:39:00,,0822.1,5.00,0.00,28.7,27.6,00.0,37.5,30.7,16.9,0000.0,0011.17,0004.58,0003.28
2022-06-11 20:40:00,,0822.1,5.00,0.00,28.8,27.8,00.0,37.5,30.8,15.9,0000.0,0010.91,0004.52,0003.27
2022-06-11 20:41:00,,0822.1,4.99,0.00,28.8,27.5,00.0,37.5,30.7,15.1,0000.0,0011.08,0004.47,0003.26
2022-06-11 20:42:00,,0822.1,5.00,0.00,28.7,26.9,00.0,37.4,30.6,16.0,0000.0,0011.45,0004.50,0003.26
2022-06-11 20:43:00,,0822.1,5.00,0.00,28.7,26.8,00.0,37.4,30.5,16.5,0000.0,0011.76,0004.53,0003.27
2022-06-11 20:44:00,,0822.1,5.01,0.00,28.7,26.9,00.0,37.4,30.5,17.7,0000.0,0012.04,0004.52,0003.27
2022-06-11 20:45:00,,0822.0,5.00,0.00,28.7,27.1,00.0,37.4,30.5,16.4,0000.0,0012.49,0004.50,0003.28
2022-06-11 20:46:00,,0822.0,5.00,0.00,28.7,27.3,00.0,37.4,30.6,16.6,0000.0,0013.11,0004.54,0003.28
2022-06-11 20:47:00,,0822.0,5.00,0.00,28.7,27.5,00.0,37.5,30.7,16.2,0000.0,0013.80,0004.62,0003.31
2022-06-11 20:48:00,,0822.0,5.00,0.00,28.7,27.7,00.0,37.5,30.8,15.7,0000.0,0014.40,0004.67,0003.32
2022-06-11 20:49:00,,0821.8,5.01,0.00,28.8,27.7,00.0,37.5,30.8,16.2,0000.0,0014.12,0004.68,0003.32
2022-06-11 20:50:00,,0821.8,5.00,0.00,28.8,27.2,00.0,37.4,30.7,17.6,0000.0,0013.59,0004.67,0003.31
2022-06-11 20:51:00,,0821.8,4.99,0.00,28.7,26.9,00.0,37.4,30.5,19.0,0000.0,0013.89,0004.74,0003.32
2022-06-11 20:52:00,,0821.8,5.00,0.00,28.7,26.9,00.0,37.4,30.6,17.1,0000.0,0013.55,0004.75,0003.33
2022-06-11 20:53:00,,0821.8,5.00,0.00,28.7,27.0,00.0,37.4,30.6,16.0,0000.0,0013.24,0004.72,0003.34
2022-06-11 20:54:00,,0822.0,5.00,0.00,28.7,27.2,00.0,37.4,30.6,15.5,0000.0,0013.27,0004.78,0003.34
2022-06-11 20:55:00,,0821.9,5.01,0.00,28.7,27.4,00.0,37.5,30.7,16.1,0000.0,0013.41,0004.81,0003.34
2022-06-11 20:56:00,,0821.8,5.00,0.00,28.7,27.6,00.0,37.5,30.7,14.9,0000.0,0013.02,0004.86,0003.35
2022-06-11 20:57:00,,0821.8,5.01,0.00,28.8,27.7,00.0,37.5,30.8,14.9,0000.0,0012.44,0004.86,0003.36
2022-06-11 20:58:00,,0821.8,5.01,0.00,28.8,27.2,00.0,37.4,30.7,15.3,0000.0,0011.63,0004.77,0003.35
2022-06-11 20:59:00,,0821.8,4.99,0.00,28.7,26.8,00.0,37.4,30.5,15.6,0000.0,0010.90,0004.72,0003.34
